sat.trackr.live / text

‹ back to catalog

KUIPER-00482

NORAD 68877 · 2026-095P

PAYLOAD ACTIVE UNKNOWN

§ Identity

Operator
Country
US
Launch date
2026-04-28
Launch site
AFETR
Launch vehicle
Mass (kg)
RCS (m²)

External: N2YO · Heavens-Above · Gunter

§ Orbital elements

Epoch: 2026-09-20T04:34:33.926880Z

Period
97.30 min
Inclination
51.9007°
Eccentricity
0.0001600
Mean motion
14.79932773 rev/d
Perigee alt
628.4 km
Apogee alt
630.7 km
Semi-major
7,007.7 km
B*
1.1871e-4
RAAN
180.5596°
Arg perigee
43.4041°
Mean anomaly
316.7047°
Rev number
2,182

§ Raw data

KUIPER-004821 68877U 26095P   26263.19067045  .00000684  00000+0  11871-3 0  99972 68877  51.9007 180.5596 0001600  43.4041 316.7047 14.79932773 21820

JSON: /api/v1/satellites/68877 · /tle

For live sub-satellite position, see the globe view (requires WebGL).

§ Visibility from observer

Set your observer location to see the next 7 days of passes ≥ 10°. The values pass through the URL so the page stays shareable.

No JS? Fill the form by hand. The geolocation button needs JavaScript.